Regional Weather Roundup
Issued by NWS Boston, MA

Current Version | Previous Version | Text Only | Print | Product List | Glossary Off
Versions: 1 2 3 4 5 6 7 8 9 10 11 12 13 14 15 16 17 18 19 20 21 22 23 24 25 26 27 28 29 30 31 32 33 34 35 36 37 38 39 40 41 42 43 44 45 46 47 48 49 50
000 ASUS41 KBOX 180510 RWRBOX REGIONAL WEATHER ROUNDUP NATIONAL WEATHER SERVICE TAUNTON MA 1200 AM EST SAT NOV 18 2017 NOTE: "FAIR" INDICATES FEW OR NO CLOUDS BELOW 12,000 FEET WITH NO SIGNIFICANT WEATHER AND/OR OBSTRUCTIONS TO VISIBILITY. MAZALL-180600- EASTERN MASSACHUSETTS CITY SKY/WX TMP DP RH WIND PRES REMARKS BOSTON NOT AVBL BEVERLY CLEAR 30 14 51 NW10 29.96F WCI 21 LAWRENCE CLEAR 32 15 49 W8 30.00F WCI 25 BEDFORD CLEAR 22 18 85 CALM 29.98S BLUE HILL NOT AVBL NORWOOD CLEAR 24 19 81 W5 29.99F WCI 18 MARSHFIELD CLEAR 32 14 47 CALM 29.97F PLYMOUTH CLEAR 28 20 71 CALM 29.98R TAUNTON CLEAR 28 20 71 CALM 29.98F NEW BEDFORD CLEAR 32 19 58 NW5 29.98S WCI 27 $$ MAZALL-180600- CAPE COD AND THE ISLANDS CITY SKY/WX TMP DP RH WIND PRES REMARKS FALMOUTH CLEAR 25 19 80 CALM 29.99S HYANNIS CLEAR 37 21 52 W5 29.96R CHATHAM CLEAR 39 22 50 NW10G17 29.97R PROVINCETOWN CLEAR 38 20 48 N20 29.96F WCI 28 NANTUCKET CLEAR 38 20 48 NW18 29.98R WCI 28 MARTHAS VNYRD CLEAR 36 19 50 NW10 29.99R WCI 28 $$ MAZALL-180600- CENTRAL AND WESTERN MASSACHUSETTS CITY SKY/WX TMP DP RH WIND PRES REMARKS WORCESTER CLEAR 29 13 51 NW8 29.95R WCI 21 FITCHBURG CLEAR 27 20 75 NW6 29.99R WCI 20 ORANGE CLEAR 21 19 92 CALM 30.00R SPRINGFIELD NOT AVBL WESTFIELD CLEAR 30 17 58 NW8 30.02S WCI 22 NORTH ADAMS CLEAR 24 18 77 NW3 30.03F PITTSFIELD CLEAR 27 15 61 W9 29.99F WCI 18 $$ RIZALL-180600- RHODE ISLAND CITY SKY/WX TMP DP RH WIND PRES REMARKS PROVIDENCE CLEAR 29 21 72 CALM 30.01 NEWPORT CLEAR 33 21 61 W3 30.00R BLOCK ISLAND CLEAR 38 21 50 NW9 30.04R WCI 31 SMITHFIELD CLEAR 29 19 66 W5 29.99R WCI 24 WESTERLY CLEAR 33 18 53 CALM 30.04R $$ CTZALL-180600- CONNECTICUT CITY SKY/WX TMP DP RH WIND PRES REMARKS BRADLEY INTL CLEAR 29 18 63 W8 30.04R WCI 21 HARTFORD CLEAR 33 17 51 NW5 30.05R WCI 29 BRIDGEPORT CLEAR 36 18 48 CALM 30.06S DANBURY PTCLDY 29 15 56 W5 30.05S WCI 24 GROTON CLEAR 34 18 52 W6 30.05R WCI 29 NEW HAVEN CLEAR 35 15 44 NW5 30.06R WCI 31 CHESTER FAIR 32 12 43 CALM 30.03R MERIDEN CLEAR 22 19 89 CALM 30.05S WILLIMANTIC CLEAR 29 21 72 CALM 30.03R OXFORD CLEAR 28 14 55 CALM 30.02F $$ MEZ002-015-021-024-NHZ003-005-008-011-012-014-VTZ005-008-180600- NORTHERN NEW ENGLAND CITY SKY/WX TMP DP RH WIND PRES REMARKS PORTLAND ME CLEAR 23 17 78 VRB5 29.96S WCI 17 BANGOR ME CLEAR 27 17 66 W8 29.86S WCI 19 CONCORD NH CLEAR 27 14 58 NW9 29.99R WCI 18 MANCHESTER NH CLEAR 30 14 51 NW7 29.98S WCI 23 NASHUA NH CLEAR 28 18 66 NW5 29.99S WCI 23 PORTSMOUTH NH CLEAR 28 13 53 W6 29.96S WCI 21 JAFFREY NH CLEAR 26 16 65 CALM 29.96S KEENE NH CLEAR 19 15 84 CALM 30.02R BURLINGTON VT CLOUDY 22 15 75 E6 30.04F WCI 14 MT. WASHINGTON PTCLDY 19 -29 10 NW68G79 N/A WCI -6 $$ NYZ052-076-180600- EASTERN NEW YORK CITY SKY/WX TMP DP RH WIND PRES REMARKS ALBANY PTCLDY 26 17 68 CALM 30.06F NEW YORK CITY PTCLDY 41 18 39 W12 30.07S $$ ANZALL-180600- MARINE OBSERVATIONS STATION/POSITION TIME TEMP WIND PRES VSBY WAVE AIR SEA DIR/SP/G HT/PER (UTC) (F) (DEG/KT/KT) (MB) (MI) (FT/S) BOSTON BUOY 0450 38 51 320/ 21/ 27 1013.2S 3/ 4 BUZZARDS BAY 0400 39 310/ 14/ 18 1016.3R NANTUCKET SOUND 0450 39 50 320/ 19/ 23 1014.9R 2/ 4 MASS BAY-STELLWA 0404 37 50 320/ 17/ 23 1014.0R 3/ 4 ISLE OF SHOALS 0400 32 300/ 16/ 18 1014.5F S OF BLOCK IS NOT AVBL $$ ......................KEY......................... SKY/WX - SKY CONDITION/PRESENT WEATHER TMP - TEMPERATURE IN FAHRENHEIT DWPT - DEWPOINT IN FAHRENHEIT RH - RELATIVE HUMIDITY IN PERCENT WIND - DIRECTION AND SPEED IN MPH PRES - MEAN SEA LEVEL PRESSURE IN INCHES OF HG WCI - WIND CHILL INDEX VSB - VISIBILITY IN MILES HX - HEAT INDEX TC - TEMPERATURE IN CELSIUS VRB - VARIABLE WIND DIRECTION N/A - NOT AVAILABLE

USA.gov is the U.S. government's official web portal to all federal, state and local government web resources and services.